Flag for Nicaragua Weather past 2 weeks in León, Nicaragua

Now
77 °F

Passing clouds.


Feels Like: 78 °F
Forecast: 78 / 94 °F
Wind: No wind

Location: Managua A. C. Sandino

Current Time: Jul 26, 2014 at 6:11:32 AM

Latest Report: Jul 26, 2014 at 5:00 AM


Visibility: N/A

Pressure: 29.83 "Hg

Humidity: 89%

Dew point: 73 °F

Location of LeónLocation

Historic Weather in León — Graph

°F

León temperature yesterday

Maximum temperature yesterday: 95 °F (at 1:00 PM)
Minimum temperature yesterday: 79 °F (at 1:00 AM)
Average temperature yesterday: 86 °F

Past Weeks' High & Low Weather Summary

 TemperatureHumidityPressure
High95 °F (Jul 12, 2:00 PM)89% (Jul 14, 5:00 AM)29.92 "Hg (Jul 14, 5:00 AM)
Low75 °F (Jul 14, 5:00 AM)39% (Jul 20, 2:00 PM)29.74 "Hg (Jul 12, 3:00 PM)
Average85 °F65%29.84 "Hg
* Reported Jul 11 5:00 AM — Jul 26 5:00 AM, León, Weather by CustomWeather, © 2014

Note: Actual official high and low records may vary slightly from our data, if they occured in-between our weather recording intervals... More about our weather records

Advertising

León weather history for previous 24 hours

 ConditionsComfort  
Time TempWeatherWind HumidityBarometerVisibility
5:00 AM
Jul 26
77 °FPassing clouds.No wind89%29.83 "HgN/A
4:00 AM77 °FPassing clouds.No wind89%29.83 "HgN/A
3:00 AM77 °FPassing clouds.No wind89%29.86 "HgN/A
2:00 AM79 °FPassing clouds.5 mph84%29.86 "HgN/A
12:00 AM81 °FPassing clouds.No wind79%29.86 "HgN/A
11:00 PM
Jul 25
81 °FPassing clouds.No wind79%29.89 "HgN/A
10:00 PM82 °FPassing clouds.No wind74%29.86 "HgN/A
9:00 PM82 °FPassing clouds.9 mph74%29.86 "HgN/A
8:00 PM86 °FPassing clouds.12 mph66%29.86 "HgN/A
7:00 PM86 °FPassing clouds.7 mph66%29.83 "HgN/A
6:00 PM88 °FScattered clouds.9 mph62%29.80 "HgN/A
5:00 PM88 °FScattered clouds.14 mph62%29.77 "HgN/A
4:00 PM86 °FScattered clouds.12 mph66%29.77 "HgN/A
3:00 PM95 °FPartly sunny.12 mph47%29.74 "HgN/A
2:00 PM91 °FScattered clouds.12 mph56%29.77 "HgN/A
1:00 PM95 °FPartly sunny.14 mph47%29.77 "HgN/A
12:00 PM91 °FScattered clouds.9 mph56%29.80 "HgN/A
11:00 AM91 °FScattered clouds.16 mph52%29.83 "HgN/A
10:00 AM90 °FPartly sunny.14 mph59%29.83 "HgN/A
9:00 AM88 °FScattered clouds.7 mph59%29.86 "HgN/A
8:00 AM84 °FScattered clouds.9 mph70%29.86 "HgN/A
7:00 AM81 °FScattered clouds.7 mph79%29.83 "HgN/A
6:00 AM79 °FPassing clouds.5 mph84%29.83 "HgN/A
Weather by CustomWeather, © 2014

See weather overviewHow to use our weather pages